GW5576 Weather Reports


time (UTC)temp
F
wind
direction
speed
knots
gust
knots
rain 1hr
in
rain 24hr
in
rain mn
in
humidity
%
barometer
mb
20260506014003 52 353 0.9 1.7 0.00 0.00 0.00 86 1008.3
20260506013718 52 340 0.9 2.6 0.00 0.00 0.00 86 1008.4
20260506013217 53 336 0.9 3.5 0.00 0.00 0.00 85 1008.5
20260506012718 53 331 0.9 3.5 0.00 0.00 0.00 85 1008.6
20260506012003 53 327 0.9 2.6 0.00 0.00 0.00 84 1008.5
20260506011718 53 327 0.9 2.6 0.00 0.00 0.00 84 1008.3
20260506011003 53 315 0.9 4.3 0.00 0.00 0.00 84 1008.3
20260506010718 53 304 0.9 4.3 0.00 0.00 0.00 84 1008.2
20260506010003 53 320 0.9 2.6 0.00 0.00 0.00 85 1008.3
20260506005503 53 335 0.9 2.6 0.00 0.00 0.00 85 1008.3
20260506005217 53 310 0.0 1.7 0.00 0.00 0.00 84 1008.1
20260506004718 53 327 0.0 0.9 0.00 0.00 0.00 84 1008.3
20260506004003 54 342 0.0 1.7 0.00 0.00 0.00 83 1008.4
20260506003718 54 291 0.0 0.9 0.00 0.00 0.00 83 1008.2
20260506003003 54 248 0.0 1.7 0.00 0.00 0.00 82 1008.2
20260506002717 54 256 0.0 1.7 0.00 0.00 0.00 82 1008.3
20260506002003 54 257 0.0 3.5 0.00 0.00 0.00 82 1008.3
20260506001503 54 231 0.9 1.7 0.00 0.00 0.00 82 1008.5
20260506001003 54 227 0.9 2.6 0.00 0.00 0.00 81 1008.3
20260506000503 55 223 0.9 1.7 0.00 0.00 0.00 81 1008.5
20260506000003 55 235 0.0 2.6 0.00 0.00 0.00 80 1008.3
20260505235717 55 234 0.0 2.6 0.00 0.00 0.00 80 1008.5
20260505235003 55 279 0.0 1.7 0.00 0.00 0.00 80 1008.8
20260505234503 56 212 0.0 1.7 0.00 0.00 0.00 79 1008.6
20260505234003 56 230 0.0 1.7 0.00 0.00 0.00 79 1008.8
20260505233503 56 248 0.0 1.7 0.00 0.00 0.00 78 1008.7
20260505233003 56 266 0.0 0.9 0.00 0.00 0.00 78 1008.9
20260505232503 56 291 0.9 1.7 0.00 0.00 0.00 78 1008.8
20260505232003 56 303 0.9 2.6 0.00 0.00 0.00 78 1008.7
20260505231503 56 300 0.9 3.5 0.00 0.00 0.00 78 1008.7
20260505231003 56 293 0.9 1.7 0.00 0.00 0.00 79 1008.6
20260505230503 56 285 0.9 3.5 0.00 0.00 0.00 80 1008.7
20260505230003 55 294 0.0 4.3 0.00 0.00 0.00 83 1008.9
20260505225503 54 343 0.0 0.9 0.00 0.00 0.00 86 1009.1
20260505225003 54 304 0.0 1.7 0.00 0.00 0.00 86 1009.0
20260505224503 55 245 0.0 1.7 0.00 0.00 0.00 85 1008.9
20260505224003 55 242 0.0 1.7 0.00 0.00 0.00 85 1009.1
20260505223503 55 254 0.0 1.7 0.00 0.00 0.00 85 1009.1
20260505223218 55 291 0.0 1.7 0.00 0.00 0.00 84 1009.1
20260505222717 55 0 0.0 0.0 0.00 0.00 0.00 84 1008.8
20260505222003 55 229 0.0 0.0 0.00 0.00 0.00 84 1008.9
20260505221503 56 237 0.0 1.7 0.00 0.00 0.00 83 1008.7
20260505221218 56 33 0.0 0.9 0.00 0.00 0.00 84 1008.5
20260505220503 55 0 0.0 0.0 0.00 0.00 0.00 84 1008.7
20260505220003 55 343 0.0 0.0 0.00 0.00 0.00 84 1008.7
20260505215503 56 3 0.0 0.9 0.00 0.00 0.00 83 1008.6
20260505215003 56 8 0.0 0.9 0.00 0.00 0.00 83 1008.4
20260505214503 56 339 0.0 1.7 0.00 0.00 0.00 83 1008.4
20260505214004 56 336 0.0 1.7 0.00 0.00 0.00 83 1008.4
20260505213503 56 350 0.0 1.7 0.00 0.00 0.00 83 1008.3
20260505213003 56 13 0.0 1.7 0.00 0.00 0.00 82 1008.4
20260505212503 56 194 0.0 1.7 0.00 0.00 0.00 81 1008.3
20260505212003 56 208 0.0 1.7 0.00 0.00 0.00 81 1008.4
20260505211503 56 30 0.0 0.9 0.00 0.00 0.00 82 1008.5
20260505211004 56 27 0.9 1.7 0.00 0.00 0.00 82 1008.5
20260505210503 56 9 0.9 1.7 0.00 0.00 0.00 82 1008.6
20260505210003 56 354 0.9 2.6 0.00 0.00 0.00 82 1008.7
20260505205503 56 353 0.9 2.6 0.00 0.00 0.00 83 1008.7
20260505205003 56 352 0.0 0.9 0.00 0.00 0.00 82 1008.6
20260505204503 56 347 0.9 1.7 0.00 0.00 0.00 82 1008.7
20260505204003 56 346 0.9 1.7 0.00 0.00 0.00 81 1008.5
20260505203503 57 347 0.9 1.7 0.00 0.00 0.00 81 1008.4
20260505203003 57 357 0.9 1.7 0.00 0.00 0.00 81 1008.4
20260505202718 57 5 0.0 1.7 0.00 0.00 0.00 80 1008.4
20260505202217 57 348 0.0 1.7 0.00 0.00 0.00 79 1008.5
20260505201503 57 248 0.0 0.9 0.00 0.00 0.00 79 1008.2
20260505201003 57 246 0.0 0.9 0.00 0.00 0.00 79 1008.1
20260505200503 57 245 0.0 0.9 0.00 0.00 0.00 79 1008.2
20260505200003 57 245 0.0 0.9 0.00 0.00 0.00 79 1008.2
20260505195503 57 253 0.0 0.9 0.00 0.00 0.00 79 1008.0
20260505195003 57 260 0.0 0.9 0.00 0.00 0.00 79 1007.9
20260505194503 57 251 0.0 0.9 0.00 0.00 0.00 79 1008.0
20260505194003 57 263 0.0 0.9 0.00 0.00 0.00 78 1008.0
20260505193503 57 278 0.0 0.9 0.00 0.00 0.00 79 1007.9
20260505193217 57 276 0.0 1.7 0.00 0.00 0.00 79 1008.0
20260505192503 57 247 0.0 0.9 0.00 0.00 0.00 79 1007.8
20260505192003 57 248 0.0 1.7 0.00 0.00 0.00 79 1007.9
20260505191718 57 245 0.0 1.7 0.00 0.00 0.00 79 1007.7
20260505191003 57 253 0.0 1.7 0.00 0.00 0.00 79 1007.6
20260505190717 57 261 0.9 1.7 0.00 0.00 0.00 79 1007.8
20260505190003 58 260 0.9 1.7 0.00 0.00 0.00 78 1007.7
20260505185503 58 254 0.9 1.7 0.00 0.00 0.00 77 1007.5
20260505185003 58 242 0.9 1.7 0.00 0.00 0.00 77 1007.4
20260505184503 58 250 0.9 1.7 0.00 0.00 0.00 76 1007.6
20260505184003 58 254 0.0 1.7 0.00 0.00 0.00 76 1007.7
20260505183503 58 254 0.0 1.7 0.00 0.00 0.00 75 1007.4
20260505183003 59 263 0.9 1.7 0.00 0.00 0.00 75 1007.3
20260505182717 59 237 0.9 1.7 0.00 0.00 0.00 74 1007.2
20260505182003 59 208 0.9 4.3 0.00 0.00 0.00 73 1007.4
20260505181503 59 211 0.9 4.3 0.00 0.00 0.00 73 1007.0
20260505181003 59 213 0.9 2.6 0.00 0.00 0.00 73 1007.2
20260505180503 59 210 0.9 3.5 0.00 0.00 0.00 73 1007.3
20260505180003 59 214 1.7 4.3 0.00 0.00 0.00 73 1006.9
20260505175503 59 226 1.7 5.2 0.00 0.00 0.00 73 1007.2
20260505175003 60 235 1.7 3.5 0.00 0.00 0.00 73 1007.2
20260505174503 60 226 1.7 4.3 0.00 0.00 0.00 72 1007.0
20260505174003 60 229 1.7 5.2 0.00 0.00 0.00 72 1006.9
20260505173503 60 250 0.9 3.5 0.00 0.00 0.00 72 1006.8
20260505173003 60 237 0.9 2.6 0.00 0.00 0.00 72 1006.8
20260505172503 61 225 1.7 4.3 0.00 0.00 0.00 71 1006.9
20260505172003 61 228 1.7 5.2 0.00 0.00 0.00 71 1006.8
20260505171503 61 225 1.7 3.5 0.00 0.00 0.00 70 1006.7
20260505171003 61 222 1.7 7.0 0.00 0.00 0.00 70 1006.5
20260505170503 61 223 1.7 5.2 0.00 0.00 0.00 70 1006.7
20260505170003 61 227 1.7 7.8 0.00 0.00 0.00 71 1006.7
20260505165717 61 226 2.6 7.8 0.00 0.00 0.00 71 1006.7
20260505165003 61 240 2.6 7.8 0.00 0.00 0.00 71 1006.7
20260505164503 60 245 1.7 6.1 0.00 0.00 0.00 71 1007.0
20260505164003 61 221 2.6 6.1 0.00 0.00 0.00 70 1006.9
20260505163503 61 218 1.7 7.8 0.00 0.00 0.00 70 1006.7
20260505163003 61 270 1.7 4.3 0.00 0.00 0.00 71 1006.9
20260505162716 60 324 1.7 5.2 0.00 0.00 0.00 71 1006.9
20260505162003 61 277 1.7 7.0 0.00 0.00 0.00 72 1007.0
20260505161503 61 251 1.7 6.1 0.00 0.00 0.00 72 1007.2
20260505161003 61 243 2.6 7.8 0.00 0.00 0.00 71 1007.3
20260505160503 61 203 2.6 7.8 0.00 0.00 0.00 70 1007.2
20260505153003 63 16 1.7 4.3 0.00 0.00 0.00 68 1007.2
20260505152503 63 4 1.7 7.0 0.00 0.00 0.00 67 1007.2
20260505152003 63 2 1.7 5.2 0.00 0.00 0.00 67 1007.2
20260505151503 63 14 1.7 6.1 0.00 0.00 0.00 64 1007.0
20260505151003 64 22 1.7 3.5 0.00 0.00 0.00 61 1007.3
20260505150503 63 25 1.7 4.3 0.00 0.00 0.00 61 1006.9
20260505140503 65 83 1.7 2.6 0.00 0.00 0.00 64 1007.2
20260505130218 73 139 0.9 2.6 0.00 0.00 0.00 37 1006.7
20260505125003 73 157 1.7 3.5 0.00 0.00 0.00 35 1006.5
20260505124503 73 164 2.6 5.2 0.00 0.00 0.00 36 1006.5
20260505124003 74 159 1.7 4.3 0.00 0.00 0.00 35 1006.6
20260505123717 74 158 1.7 3.5 0.00 0.00 0.00 35 1006.6
20260505123003 73 154 1.7 3.5 0.00 0.00 0.00 36 1006.6
20260505122717 73 150 1.7 3.5 0.00 0.00 0.00 37 1006.8
20260505122218 72 151 2.6 4.3 0.00 0.00 0.00 37 1006.8
20260505121503 73 149 1.7 3.5 0.00 0.00 0.00 36 1006.6
20260505121003 74 153 1.7 2.6 0.00 0.00 0.00 34 1006.8
20260505120503 73 162 1.7 3.5 0.00 0.00 0.00 36 1006.8
20260505120003 74 162 0.9 2.6 0.00 0.00 0.00 36 1006.8
20260505115503 74 162 0.9 2.6 0.00 0.00 0.00 37 1006.8
20260505115218 74 209 0.9 1.7 0.00 0.00 0.00 36 1006.8
20260505114503 73 220 0.9 3.5 0.00 0.00 0.00 36 1006.7
20260505114003 74 187 0.9 3.5 0.00 0.00 0.00 37 1006.8
20260505113503 73 166 0.9 2.6 0.00 0.00 0.00 39 1006.7
20260505113003 72 156 1.7 3.5 0.00 0.00 0.00 38 1006.8
20260505112503 71 156 1.7 3.5 0.00 0.00 0.00 39 1007.0
20260505112218 72 163 1.7 2.6 0.00 0.00 0.00 41 1007.0
20260505111716 72 170 1.7 4.3 0.00 0.00 0.00 42 1007.2
20260505111003 72 173 0.9 3.5 0.00 0.00 0.00 40 1007.2
20260505110503 73 180 0.9 3.5 0.00 0.00 0.00 40 1007.2
20260505102003 73 159 1.7 4.3 0.00 0.00 0.00 41 1007.5
20260505101503 73 161 1.7 3.5 0.00 0.00 0.00 42 1007.8
20260505101003 73 169 1.7 2.6 0.00 0.00 0.00 41 1007.7
20260505100503 72 159 1.7 3.5 0.00 0.00 0.00 44 1007.7
20260505100003 71 168 1.7 3.5 0.00 0.00 0.00 45 1007.8
20260505095503 71 196 1.7 3.5 0.00 0.00 0.00 47 1007.8
20260505095003 70 183 1.7 3.5 0.00 0.00 0.00 47 1007.7
20260505094503 69 182 1.7 4.3 0.00 0.00 0.00 49 1007.8
20260505094003 71 199 1.7 3.5 0.00 0.00 0.00 47 1007.8
20260505093503 71 176 1.7 3.5 0.00 0.00 0.00 46 1008.0
20260505093003 71 172 1.7 3.5 0.00 0.00 0.00 47 1008.0
20260505092503 72 180 1.7 3.5 0.00 0.00 0.00 45 1008.1
20260505092003 71 179 1.7 5.2 0.00 0.00 0.00 47 1008.2
20260505091503 72 169 1.7 3.5 0.00 0.00 0.00 46 1008.2
20260505091217 72 169 1.7 2.6 0.00 0.00 0.00 46 1008.2
20260505090503 71 188 0.9 2.6 0.00 0.00 0.00 45 1008.2
20260505090003 69 192 0.9 3.5 0.00 0.00 0.00 48 1008.2
20260505085503 68 161 1.7 4.3 0.00 0.00 0.00 50 1008.5
20260505085003 68 153 1.7 4.3 0.00 0.00 0.00 54 1008.3
20260505084718 68 189 0.9 2.6 0.00 0.00 0.00 53 1008.3
20260505084003 70 203 1.7 3.5 0.00 0.00 0.00 51 1008.4
20260505083503 72 181 0.9 2.6 0.00 0.00 0.00 48 1008.4
20260505083003 71 180 0.9 2.6 0.00 0.00 0.00 48 1008.5
20260505082503 69 189 0.9 2.6 0.00 0.00 0.00 51 1008.5
20260505082216 69 197 0.9 2.6 0.00 0.00 0.00 51 1008.7
20260505081503 68 195 0.9 2.6 0.00 0.00 0.00 53 1008.8
20260505081003 68 178 0.9 1.7 0.00 0.00 0.00 54 1008.7
20260505080503 68 165 1.7 2.6 0.00 0.00 0.00 56 1008.6
20260505080003 67 154 1.7 3.5 0.00 0.00 0.00 56 1008.8
20260505075717 66 148 1.7 3.5 0.00 0.00 0.00 58 1009.0
20260505075003 69 140 0.9 2.6 0.00 0.00 0.00 54 1009.0
20260505074503 67 157 0.9 2.6 0.00 0.00 0.00 56 1009.0
20260505074216 66 166 1.7 2.6 0.00 0.00 0.00 57 1008.9
20260505073717 66 161 1.7 2.6 0.00 0.00 0.00 57 1008.9
20260505073003 65 130 0.9 3.5 0.00 0.00 0.00 60 1008.9
20260505072503 65 133 0.9 1.7 0.00 0.00 0.00 60 1009.2
20260505072003 64 139 0.9 1.7 0.00 0.00 0.00 60 1009.0
20260505071503 67 132 0.9 2.6 0.00 0.00 0.00 57 1008.8
20260505071003 66 140 0.9 2.6 0.00 0.00 0.00 58 1008.8
20260505070503 65 126 0.0 1.7 0.00 0.00 0.00 59 1008.9
20260505070003 64 97 0.9 1.7 0.00 0.00 0.00 60 1008.8
20260505065717 63 138 0.9 1.7 0.00 0.00 0.00 61 1008.9
20260505065003 64 184 0.9 2.6 0.00 0.00 0.00 61 1009.0
20260505064503 64 180 0.9 2.6 0.00 0.00 0.00 62 1009.2
20260505064003 64 208 0.9 1.7 0.00 0.00 0.00 61 1009.1
20260505063717 64 206 0.9 1.7 0.00 0.00 0.00 61 1009.3
20260505063003 63 195 0.9 2.6 0.00 0.00 0.00 62 1009.4
20260505062503 63 147 0.0 1.7 0.00 0.00 0.00 63 1009.3
20260505062003 62 157 0.9 1.7 0.00 0.00 0.00 65 1009.4
20260505061503 61 166 0.9 1.7 0.00 0.00 0.00 65 1009.5
20260505061003 61 161 0.0 1.7 0.00 0.00 0.00 66 1009.4
20260505060503 61 156 0.0 1.7 0.00 0.00 0.00 66 1009.6
20260505060003 62 203 0.0 0.9 0.00 0.00 0.00 65 1009.6
20260505055503 61 223 0.0 1.7 0.00 0.00 0.00 67 1009.6
20260505055217 60 247 0.0 1.7 0.00 0.00 0.00 69 1009.8
20260505054503 56 308 0.0 1.7 0.00 0.00 0.00 77 1009.5
20260505054003 56 94 0.0 1.7 0.00 0.00 0.00 77 1009.8
20260505053503 55 84 0.0 1.7 0.00 0.00 0.00 78 1009.9
20260505053003 55 128 0.0 1.7 0.00 0.00 0.00 79 1009.8
20260505052503 55 147 0.0 1.7 0.00 0.00 0.00 79 1009.5
20260505052003 54 131 0.0 1.7 0.00 0.00 0.00 80 1009.8
20260505051503 54 97 0.9 1.7 0.00 0.00 0.00 80 1009.5
20260505051003 54 99 0.9 1.7 0.00 0.00 0.00 80 1009.6
20260505050716 54 109 0.9 1.7 0.00 0.00 0.00 80 1009.4
20260505041503 53 65 0.9 2.6 0.00 0.00 0.00 82 1009.4
20260505041003 53 98 0.9 1.7 0.00 0.00 0.00 82 1009.5
20260505040503 53 105 0.9 1.7 0.00 0.00 0.00 82 1009.5
20260505040004 53 90 0.9 2.6 0.00 0.00 0.00 82 1009.6
20260505035503 53 94 0.0 0.9 0.00 0.00 0.00 82 1009.8
20260505035003 54 109 0.9 1.7 0.00 0.00 0.00 82 1009.5
20260505034503 54 109 0.9 2.6 0.00 0.00 0.00 81 1009.8
20260505034003 54 103 0.9 1.7 0.00 0.00 0.00 81 1009.5
20260505033503 54 109 0.9 1.7 0.00 0.00 0.00 81 1009.5
20260505033003 54 100 0.9 1.7 0.00 0.00 0.00 80 1009.8
20260505032503 54 95 0.9 1.7 0.00 0.00 0.00 80 1009.9
20260505032003 54 87 0.9 2.6 0.00 0.00 0.00 80 1009.8
20260505031503 54 81 0.9 2.6 0.00 0.00 0.00 80 1009.8
20260505031003 55 80 0.9 1.7 0.00 0.00 0.00 79 1009.9
20260505030503 55 70 0.9 2.6 0.00 0.00 0.00 79 1009.9
20260505030217 55 56 0.9 2.6 0.00 0.00 0.00 79 1010.0
20260505025503 55 60 0.9 2.6 0.00 0.00 0.00 79 1010.1
20260505025003 55 62 0.9 2.6 0.00 0.00 0.00 78 1010.0
20260505024503 55 58 0.9 3.5 0.00 0.00 0.00 78 1010.1
20260505024003 55 54 0.9 1.7 0.00 0.00 0.00 78 1010.1
20260505023503 55 58 0.9 2.6 0.00 0.00 0.00 78 1010.2
20260505023003 55 59 0.9 3.5 0.00 0.00 0.00 78 1010.1
20260505022503 56 54 0.9 1.7 0.00 0.00 0.00 77 1010.3
20260505022216 56 53 0.9 1.7 0.00 0.00 0.00 77 1010.2
20260505021503 56 52 0.9 2.6 0.00 0.00 0.00 77 1010.3
20260505021003 56 50 0.9 2.6 0.00 0.00 0.00 77 1010.5
20260505020503 56 47 0.9 3.5 0.00 0.00 0.00 76 1010.3
20260505020003 56 48 0.9 1.7 0.00 0.00 0.00 76 1010.7
20260505015503 56 61 0.9 1.7 0.00 0.00 0.00 75 1010.4
20260505015003 57 58 0.9 2.6 0.00 0.00 0.00 75 1010.5
20260505014503 57 55 0.0 2.6 0.00 0.00 0.00 74 1010.6